Tracking 19570 objects as of 21-Feb-2019
HD Live streaming from Space Station
objects crossing your sky now

THORAD DELTA 1 DEB

Track THORAD DELTA 1 DEB now!
10-day predictions


NORAD ID: 8563
Int'l Code: 1974-089DA
Perigee: 1,396.4 km
Apogee: 1,522.8 km
Inclination: 101.2 °
Period: 114.9 minutes
Semi major axis: 7830 km
RCS: 0.0458 m2 (small)
Launch date: November 15, 1974
Source: United States (US)
Launch site: AIR FORCE WESTERN TEST RANGE (AFWTR)

Note: This is SATELLITE DEBRIS
aabbcc
Your satellite tracking list
Your tracking list is empty




NASA's NSSDC Master Catalog

Two Line Element Set (TLE):
1  8563U 74089DA  19052.00224497  .00000022  00000-0  39598-3 0  9996
2  8563 101.2020 231.4900 0080708  39.0318 112.7290 12.52893537 21466
Source of the keplerian elements: AFSPC